Roswell, NM

11:17 PM MDT on August 20, 2017 (GMT -0600)
Roswell Industrial

Weather History for KROW - January, 2014

Change the Weather History Date:

Monday, January 13, 2014

  Actual Average Record
Temperature  
Mean Temperature 48 °F 40 °F  
Max Temperature 63 °F 55 °F 77 °F (1957)
Min Temperature 32 °F 26 °F -22 °F (1963)
Degree Days  
Heating Degree Days 17 25  
Month to date heating degree days 324 331  
Since 1 July heating degree days 1770 1741  
Cooling Degree Days 0 0  
Month to date cooling degree days 0 0  
Year to date cooling degree days 0 0  
Moisture  
Dew Point 5 °F    
Average Humidity 19    
Maximum Humidity 29    
Minimum Humidity 9    
Precipitation  
Precipitation 0.00 in 0.01 in 1.20 in (1902)
Month to date precipitation 0.00 0.16  
Year to date precipitation 0.00 0.16  
Sea Level Pressure  
Sea Level Pressure 30.05 in    
Wind  
Wind Speed 15 mph (WNW)    
Max Wind Speed 35 mph    
Max Gust Speed 43 mph    
Visibility 10 miles    
Events      
T = Trace of Precipitation, MM = Missing Value Source: NWS Daily Summary

Daily Weather History Graph

Daily Weather History Graph

Search for Another Location

Airport or City:

Trip Planner

Search our weather history database for the weather conditions in past years. The results will help you decide how hot, cold, wet, or windy it might be!

Date:

Astronomy

Jan. 13, 2014 Rise Set
Actual Time 7:02 AM MST 5:11 PM MST
Civil Twilight 6:35 AM MST 5:38 PM MST
Nautical Twilight 6:04 AM MST 6:09 PM MST
Astronomical Twilight 5:34 AM MST 6:39 PM MST
Moon 3:28 PM MST (1/13) 4:53 AM MST (1/13)
Length of Visible Light 11h 03m
Length of Day
10h 09m
Waxing Gibbous, 95% of the Moon is Illuminated
Jan 13
Waxing Gibbous
Jan 15
Full
Jan 23
Last Quarter
Jan 30
New
Feb 6
First Quarter

Hourly Weather History & Observations

Time (MST) Temp. Windchill Dew Point Humidity Pressure Visibility Wind Dir Wind Speed Gust Speed Precip Events Conditions
12:51 AM 45.0 °F 36.6 °F 7.0 °F 21% 29.96 in 10.0 mi NW 21.9 mph 28.8 mph N/A   Clear
1:51 AM 45.0 °F 36.6 °F 3.9 °F 18% 29.97 in 10.0 mi WNW 21.9 mph 29.9 mph N/A   Clear
2:51 AM 45.0 °F 37.1 °F 3.9 °F 18% 29.99 in 10.0 mi WNW 19.6 mph 31.1 mph N/A   Clear
3:51 AM 44.1 °F 35.9 °F 3.9 °F 19% 30.02 in 10.0 mi NW 19.6 mph - N/A   Clear
4:51 AM 42.1 °F 34.9 °F 3.9 °F 21% 30.06 in 10.0 mi NNW 13.8 mph - N/A   Clear
5:51 AM 41.0 °F 35.2 °F 3.9 °F 21% 30.11 in 10.0 mi NW 9.2 mph - N/A   Clear
6:51 AM 39.0 °F 33.4 °F 5.0 °F 24% 30.13 in 10.0 mi NW 8.1 mph - N/A   Clear
7:51 AM 41.0 °F - 5.0 °F 23% 30.15 in 10.0 mi Calm Calm - N/A   Clear
8:31 AM 46.9 °F - 5.0 °F 18% 30.20 in 10.0 mi NW 19.6 mph 26.5 mph N/A   Clear
8:51 AM 48.0 °F - 3.9 °F 16% 30.13 in 10.0 mi NW 21.9 mph 36.8 mph N/A   Clear
9:51 AM 52.0 °F - 3.0 °F 14% 30.12 in 10.0 mi NW 29.9 mph 38.0 mph N/A   Clear
10:51 AM 54.0 °F - 3.0 °F 13% 30.10 in 10.0 mi NW 25.3 mph 35.7 mph N/A   Clear
11:51 AM 55.9 °F - 3.9 °F 12% 30.05 in 10.0 mi NW 31.1 mph 41.4 mph N/A   Clear
12:51 PM 61.0 °F - 3.9 °F 10% 30.02 in 10.0 mi NW 25.3 mph 36.8 mph N/A   Clear
1:51 PM 62.1 °F - 3.9 °F 10% 30.00 in 10.0 mi NW 18.4 mph 32.2 mph N/A   Clear
2:51 PM 63.0 °F - 3.9 °F 10% 29.99 in 10.0 mi NW 16.1 mph 25.3 mph N/A   Clear
3:51 PM 62.1 °F - 5.0 °F 10% 30.00 in 10.0 mi NW 12.7 mph - N/A   Clear
4:51 PM 57.9 °F - 6.1 °F 13% 30.01 in 10.0 mi WNW 9.2 mph - N/A   Clear
5:51 PM 50.0 °F - 7.0 °F 18% 30.04 in 10.0 mi SSW 8.1 mph - N/A   Clear
6:51 PM 50.0 °F - 7.0 °F 18% 30.05 in 10.0 mi WNW 5.8 mph - N/A   Clear
7:51 PM 46.9 °F - 8.1 °F 21% 30.06 in 10.0 mi WSW 8.1 mph - N/A   Clear
8:51 PM 46.0 °F - 8.1 °F 21% 30.05 in 10.0 mi Calm Calm - N/A   Clear
9:51 PM 37.9 °F 32.7 °F 9.0 °F 30% 30.06 in 10.0 mi South 6.9 mph - N/A   Clear
10:51 PM 48.0 °F - 8.1 °F 20% 30.03 in 10.0 mi WNW 11.5 mph - N/A   Clear
11:51 PM 33.1 °F 25.5 °F 10.9 °F 40% 30.04 in 10.0 mi SE 9.2 mph - N/A   Clear